Find OneWeb SL0560

NORAD ID: 55145 Int'l Des: 2023-004 Owner: ONEWEBN Country: UK Constellation: oneweb operational
LEOCIRCULARPOLARONEWEB_TYPE

Live Position

Loading 3D Globe...

About OneWeb SL0560

Description loading...

Upcoming Passes

Passes for default location (London). Set your location on the main map for personalized predictions.

Altitude History

Loading altitude history...

Two-Line Element Set

1 55145U 23004F 26126.34241238 -.00000067 00000-0 -20203-3 0 9998
2 55145 87.9172 343.7870 0001648 76.1589 283.9727 13.18685463164197
Epoch: May 6, 2026 • Age: 21 hours

Current Status

Altitude 1194.6 km
Velocity 7.26 km/s
Sub-Earth Point 38.22°N, 137.56°W
Launch Date Jan 10, 2023
Age 3.3 years
Type internet

Technical Details

Classification Payload
Mass 148.00 kg
Dry Mass 140.00 kg
Total Mass 148.00 kg
Length 1.30 m
Diameter 1.00 m
Span 5.00 m
Shape Trapezoid+2 pan
Manufacturer ONEWUS
Bus Type ARROW
Phase Status In Orbit
Owner/State ONEWEBN/UK

Most Searched